Location: Te Maire Creek
(41.1333°S, 175.9167°E)
Time: 01:38:21
(UTC+00:00)

Cosmos 2058 - Pass Details

Date: 19 May 2024
Orbit: 547 x 564 km, 82.5° (Epoch: 18 June)

Event Time Altitude Azimuth Distance (km) Brightness Sun altitude
Rises 17:52:45 0° 186° (S) 2,791 6.2 -16.7°
Reaches altitude 10° 17:54:58 10° 184° (S) 1,883 5.4 -16.3°
Maximum altitude 17:59:07 74° 99° (E) 592 3.0 -15.5°
Drops below altitude 10° 18:03:11 10° 13° (NNE) 1,842 5.8 -14.8°
Sets 18:05:19 0° 10° (N) 2,725 6.7 -14.4°
